Temperature
10 10 10 10 9 8 7 7 7 7 6 6 6 6 6 6 6 6 6 6 5 5 5 4 4 4 4 3 3 3 3 2 2 2 2 2 3 3 3 3 3 3 4
10 9 9 8 8 7 7 7 7 6 6 6 6 6 6 6 6 6 5 5 5 4 4 4 3 3 3 3 2 2 2 2 2 2 2 2 2 2 2 2 3 3 4
8 8 8 7 7 7 7 7 6 6 6 6 6 6 6 6 6 5 5 4 4 4 3 3 2 2 1 1 1 1 1 1 1 1 1 1 1 2 2 3 3 3 3
8 7 7 7 7 7 7 6 6 6 6 6 6 6 5 5 5 5 4 4 3 2 2 1 1 1 1 1 1 0 0 0 0 0 1 1 1 1 2 2 3 3 3
8 7 7 7 7 7 6 6 6 6 6 5 5 5 5 4 4 4 3 2 2 1 1 1 1 1 1 1 0 0 0 0 0 0 0 0 1 1 1 2 2 2 2
7 7 7 7 7 6 6 6 6 5 5 4 4 4 3 3 3 2 2 1 1 1 1 1 1 1 1 0 0 0 -0 -0 -0 -0 -0 -0 -0 0 1 1 1 1 1
6 6 6 6 6 6 6 6 5 5 4 4 3 3 3 2 2 1 1 1 1 1 1 1 1 1 0 0 -0 -0 -0 -0 -1 -1 -1 -0 -0 0 0 1 1 1 1
5 5 5 6 6 6 5 5 4 4 3 3 2 2 2 1 1 1 1 1 0 0 1 1 1 0 0 -0 -1 -1 -1 -1 -0 -1 -1 -0 0 0 0 0 0 0 1
5 5 5 6 5 5 4 4 3 3 2 2 1 1 1 1 1 0 0 0 -0 -0 0 1 0 -0 -0 -1 -1 -1 -1 -1 -1 -0 -0 0 0 0 0 1 1 1 1
5 5 5 5 5 4 4 3 2 2 2 1 1 0 1 0 0 0 -0 -0 -0 -0 0 0 0 -0 -1 -1 -1 -1 -1 -1 -1 -0 0 0 1 1 1 1 1 1 1
5 5 5 4 4 4 3 2 2 2 1 1 0 0 0 0 -0 -0 -0 -0 -1 -0 -0 -0 -0 -1 -1 -1 -1 -1 -0 -0 -0 0 0 1 1 1 1 1 1 1 1
5 5 4 4 3 3 2 2 2 1 1 0 -0 -0 -0 -0 -0 -1 -1 -0 -0 -0 -0 -0 -0 -1 -1 -1 -1 -1 -0 0 0 0 1 1 1 1 1 0 0 0 -0
5 4 4 3 2 2 2 1 1 1 0 -0 -1 -1 -1 -1 -1 -1 -1 -0 -0 -0 -0 -0 -1 -1 -1 -1 -1 -1 -0 0 0 1 1 1 0 0 0 -0 -1 -1 -1
4 4 4 3 2 2 1 1 1 0 -0 -1 -1 -1 -1 -1 -1 -1 -1 -0 -0 -0 -0 -0 -1 -1 -1 -1 -1 -0 -0 0 0 1 0 0 0 -0 -1 -1 -2 -2 -1
5 4 4 3 2 2 1 1 0 0 -0 -1 -1 -1 -1 -1 -1 -1 -1 -0 -0 -0 -0 -1 -1 -1 -1 -1 -1 -0 -0 0 0 0 0 0 -0 -0 -1 -2 -2 -1 -1
5 4 4 3 2 2 1 1 0 0 -0 -1 -1 -1 -1 -1 -1 -1 -1 -1 -0 -0 -1 -1 -1 -1 -1 -1 -0 -0 -0 -0 -0 0 0 0 0 -0 -1 -1 -1 -1 -1
4 4 4 3 2 2 1 1 1 0 -0 -1 -1 -1 -1 -1 -1 -1 -1 -1 -1 -1 -1 -1 -1 -1 -1 -1 -0 -0 -0 0 0 1 1 1 0 -0 -1 -1 -1 -2 -2
4 4 3 3 3 2 2 1 1 0 -0 -1 -1 -1 -1 -1 -1 -1 -1 -0 -0 -1 -1 -1 -1 -1 -0 -0 -1 -0 -0 0 1 1 1 1 0 -0 -1 -1 -1 -2 -2
4 3 3 3 3 3 2 2 1 0 -0 -1 -1 -1 -1 -1 -1 -1 -1 -1 -1 -1 -1 -1 -1 -1 -0 -0 -0 -0 0 0 1 1 1 1 0 0 0 -0 -1 -1 -1
4 4 4 4 3 3 3 2 1 0 -0 -1 -1 -1 -1 -1 -1 -1 -1 -1 -1 -1 -1 -1 -1 -1 -0 -0 -1 -0 0 0 1 1 1 1 1 1 1 1 0 0 -0
5 4 4 4 3 3 3 2 2 1 0 -0 -1 -1 -2 -2 -2 -1 -1 -1 -1 -1 -1 -1 -1 -1 -0 -0 -0 -0 0 0 1 1 1 1 1 2 2 2 2 1 1
5 4 4 4 3 3 3 2 2 1 0 -0 -1 -1 -2 -2 -2 -1 -1 -1 -1 -1 -1 -1 -1 -0 -0 -0 -0 -0 0 0 1 1 1 2 2 2 3 3 2 2 3
5 5 4 4 4 3 3 2 2 1 0 -0 -1 -1 -2 -2 -1 -1 -1 -1 -1 -1 -1 -1 -0 -0 -0 -0 -0 0 0 1 1 1 2 2 2 2 3 3 3 3 3
5 4 4 4 3 3 2 2 1 1 0 -0 -1 -1 -2 -2 -1 -1 -1 -1 -1 -1 -1 -0 -0 -0 -0 -0 0 0 0 1 1 2 2 2 2 2 3 3 3 4 4
4 4 3 3 3 2 2 1 1 1 0 -0 -1 -1 -1 -1 -1 -1 -1 -1 -0 -0 -0 -0 -0 0 0 0 0 0 1 1 2 2 2 3 3 3 3 4 4 4 4
4 4 3 3 3 2 2 1 1 0 0 -0 -1 -1 -1 -1 -1 -1 -1 -1 -0 -0 -0 -0 -0 0 1 1 1 1 1 2 2 2 3 3 3 4 4 4 5 5 5
Wind_Speed
7 7 7 6 5 4 4 5 4 3 1 2 2 4 4 5 6 6 7 8 8 8 8 9 9 9 7 7 8 8 9 9 13 11 8 9 11 11 10 15 19 20 18
7 7 6 5 4 4 5 5 4 2 1 3 4 5 6 7 7 7 7 7 8 9 9 9 10 10 10 9 8 9 9 9 11 12 9 9 11 11 11 11 13 17 14
8 7 6 5 4 4 5 5 3 1 3 4 5 6 6 6 5 7 9 10 10 10 10 10 9 9 10 10 10 11 10 11 9 10 10 9 9 11 11 13 13 9 11
6 6 5 3 4 4 4 4 2 4 5 5 5 6 7 8 10 11 11 10 9 10 10 9 9 8 9 10 10 10 10 10 10 10 10 9 9 10 10 9 8 5 4
2 3 4 3 4 3 3 3 4 5 6 7 7 8 8 7 9 9 9 10 10 10 9 9 10 12 14 10 11 11 11 10 11 10 10 10 10 9 9 7 7 6 5
4 3 3 3 3 3 2 2 4 6 7 7 8 8 7 6 6 6 7 9 10 10 10 9 10 11 12 15 20 20 17 14 12 11 11 12 13 12 10 9 7 8 6
9 9 6 4 2 2 4 7 8 7 7 7 7 7 5 5 3 2 7 10 10 9 10 10 11 12 13 10 15 19 18 18 18 14 14 15 15 14 11 11 9 9 8
4 4 4 2 2 5 8 8 8 7 7 7 7 7 7 2 2 4 11 11 9 8 10 11 12 13 14 13 14 14 13 13 14 13 13 14 14 11 9 10 10 10 9
5 4 1 4 6 8 8 8 7 6 5 6 7 7 7 5 4 7 13 11 10 10 11 12 13 13 13 14 15 15 14 13 14 15 14 13 15 14 11 9 9 9 7
2 4 6 7 6 6 7 5 5 4 5 6 6 6 7 7 8 10 14 11 11 12 12 12 13 13 15 16 14 12 13 12 9 10 10 9 8 8 10 8 6 5 4
5 6 8 7 5 7 5 4 4 5 5 5 7 7 7 7 8 11 13 11 11 12 11 11 10 15 18 18 15 10 11 11 9 8 6 5 5 4 4 5 6 4 2
6 8 8 7 8 7 5 5 5 6 6 7 8 9 8 8 10 12 15 15 13 12 11 10 10 17 19 17 12 12 12 8 4 4 3 4 3 4 5 7 8 8 7
7 6 6 7 7 7 6 6 6 6 7 8 8 9 9 9 9 14 16 17 15 10 10 15 17 18 16 11 12 13 10 6 4 3 4 5 4 3 3 4 5 6 5
5 3 6 7 6 6 5 6 6 7 7 7 7 8 9 9 9 11 11 11 12 11 10 12 14 14 11 10 9 8 7 6 5 5 5 4 4 5 6 5 4 4 4
4 3 7 7 6 4 4 5 6 6 6 5 6 7 7 8 11 15 12 9 9 9 9 7 6 8 8 7 7 7 7 7 7 6 5 4 4 5 5 4 3 3 4
4 4 5 5 5 4 4 3 4 4 5 3 1 4 7 8 13 14 16 15 13 14 8 7 8 8 8 8 7 7 6 6 6 5 5 5 5 4 3 3 4 6 7
6 6 5 5 4 4 4 4 2 3 5 4 1 6 9 11 13 15 17 15 11 11 7 7 8 9 8 8 7 7 7 7 6 5 6 5 5 5 6 7 7 7 8
6 6 5 3 3 4 4 4 5 5 4 3 2 8 12 13 12 14 15 12 10 9 7 7 8 8 8 7 6 6 7 7 6 6 6 5 5 6 7 8 7 8 9
8 6 5 3 4 4 4 5 6 6 6 6 6 7 11 12 11 12 12 9 8 8 7 7 7 8 8 7 6 6 6 6 7 7 6 5 6 6 6 6 7 9 8
5 2 5 5 6 5 5 5 6 6 6 5 5 6 7 8 9 10 9 8 8 8 8 8 7 8 8 7 7 7 6 7 8 7 5 4 4 4 5 5 5 6 6
5 4 1 6 7 7 6 6 5 6 6 5 5 5 6 7 8 9 8 8 7 8 8 8 7 8 8 7 7 7 8 8 8 8 5 4 4 3 3 5 4 4 5
5 6 7 7 7 6 6 6 7 7 8 8 6 8 8 8 8 8 7 7 7 7 7 7 7 7 7 7 7 8 8 9 10 9 6 5 5 6 5 5 4 3 4
7 8 7 7 7 7 8 9 8 9 9 8 7 8 8 6 6 7 7 7 7 6 8 8 7 7 8 8 7 6 7 7 9 10 6 4 5 5 6 6 6 5 6
9 9 10 9 9 9 9 9 9 9 9 7 8 8 6 3 3 4 6 6 6 7 8 8 8 9 11 11 11 10 11 12 12 11 10 5 4 4 4 5 5 6 6
9 9 9 8 8 8 8 8 8 9 8 8 8 7 6 5 5 5 4 4 6 6 7 8 9 10 12 14 14 15 18 19 17 14 11 6 5 5 3 2 2 2 4
9 9 8 8 8 8 8 8 8 8 8 8 8 7 7 7 8 7 5 4 5 6 9 10 13 14 15 14 15 17 17 17 17 16 12 6 7 6 4 1 3 4 7
Wind_Direction
91 92 104 112 122 132 119 119 107 83 123 253 315 318 308 294 280 271 271 278 286 295 301 302 299 293 291 288 283 277 270 267 277 284 286 285 282 281 286 290 286 273 266
115 111 111 124 150 164 130 110 119 121 307 319 315 310 304 298 295 300 317 338 344 339 331 323 320 321 325 318 308 300 292 284 282 287 290 292 294 300 289 283 288 278 267
137 138 143 157 158 142 118 101 73 17 310 303 302 301 306 317 345 14 18 7 353 337 327 322 324 326 318 312 309 303 299 296 293 293 293 291 290 289 290 289 281 276 274
127 132 148 153 135 121 98 85 24 347 329 334 342 347 356 20 41 29 13 355 340 327 320 320 319 311 302 303 304 299 298 296 294 289 287 286 285 284 282 284 291 297 310
114 141 139 126 115 99 72 37 10 1 359 6 3 5 15 51 46 32 7 348 330 316 312 310 305 301 301 305 307 307 303 298 295 291 291 295 294 296 297 304 310 314 298
17 49 77 59 59 67 52 37 41 32 19 14 11 9 19 54 79 46 10 338 320 316 316 314 310 304 311 313 306 300 297 295 296 294 293 291 291 294 300 303 303 300 289
27 18 12 2 21 42 36 46 43 31 24 22 15 10 26 118 125 31 354 326 321 325 326 321 320 317 313 305 306 303 293 286 282 282 283 283 284 286 292 295 291 286 282
10 314 306 312 80 58 51 45 36 29 23 11 1 358 348 28 140 15 347 326 324 332 327 321 318 316 313 312 309 301 290 280 272 272 272 278 282 286 289 288 284 279 271
231 234 88 48 47 53 49 41 37 16 9 359 3 351 342 358 48 30 359 336 333 331 322 316 312 311 314 317 311 300 294 287 276 270 271 276 277 278 277 278 270 263 267
128 89 67 47 34 55 57 37 13 353 358 352 353 342 344 359 44 40 6 346 337 329 319 314 312 314 314 313 311 300 293 294 300 307 303 294 282 280 285 285 279 260 251
113 89 67 36 23 69 53 26 9 5 1 3 4 358 358 11 40 26 1 349 335 320 316 320 322 328 326 321 317 305 292 293 296 298 301 305 306 319 354 18 24 15 349
92 78 65 46 30 40 45 37 33 12 12 22 13 4 2 8 12 359 343 330 322 318 319 322 327 328 327 326 330 338 334 323 307 312 316 324 350 30 43 48 41 34 28
77 78 82 73 63 42 35 30 29 27 28 24 12 2 353 350 354 354 338 327 327 329 324 326 330 327 328 333 338 343 348 353 352 353 3 16 30 37 38 58 46 23 11
71 78 116 98 80 56 31 31 36 35 29 22 9 354 347 345 352 346 335 331 336 336 331 329 329 332 345 346 345 351 358 3 5 16 26 29 33 38 45 49 36 5 1
100 65 101 94 77 56 52 49 44 64 57 31 7 352 349 346 340 331 335 338 337 330 328 340 351 349 359 0 356 359 4 9 15 16 15 11 40 58 53 44 32 8 22
60 66 85 85 65 41 35 92 106 94 144 155 285 334 355 352 338 340 343 342 341 342 353 360 357 354 356 359 359 2 2 5 3 356 357 10 35 65 64 48 38 38 43
54 45 57 59 59 39 25 29 87 160 196 197 159 11 6 356 351 349 348 344 355 3 12 2 357 352 352 356 1 1 2 6 1 354 355 14 47 58 54 57 60 57 58
64 72 51 58 58 46 28 40 49 44 46 44 59 32 10 358 357 357 352 357 10 12 8 1 354 349 346 352 358 1 6 7 359 353 355 24 65 77 75 70 68 68 67
45 36 12 27 58 60 45 52 54 45 41 33 26 19 7 355 3 10 7 12 3 2 0 356 351 348 347 354 359 359 6 0 355 357 12 43 73 93 96 95 90 87 83
109 57 353 25 44 45 48 47 50 47 47 43 33 16 2 6 9 7 7 4 2 359 356 353 350 349 348 354 3 2 358 355 355 358 15 42 56 93 112 122 120 109 107
61 75 21 41 42 31 37 38 46 56 51 45 44 45 31 23 12 4 1 358 356 352 350 350 351 349 348 354 5 5 5 1 356 354 12 31 23 29 95 112 107 105 121
37 51 48 41 55 34 25 36 39 51 53 44 41 65 73 36 12 2 358 354 350 347 346 348 348 347 347 358 9 12 9 3 352 345 360 26 18 12 35 83 97 82 86
43 45 48 44 42 51 39 35 39 54 52 38 42 57 55 34 6 358 356 353 351 352 354 353 352 352 353 354 5 13 7 350 336 331 344 32 34 29 32 48 58 57 56
50 42 39 36 40 43 44 41 40 50 52 42 48 59 57 44 23 9 359 356 357 356 355 354 353 350 356 5 9 13 4 351 342 339 337 9 45 60 40 40 56 67 65
51 48 43 42 44 47 47 46 41 44 47 42 46 48 44 38 46 58 28 352 351 353 358 -0 2 2 2 13 12 5 359 360 1 356 341 345 20 73 101 55 34 57 77
51 51 48 44 48 55 54 50 47 48 50 45 42 43 42 40 40 46 40 9 2 5 11 13 20 23 16 10 5 6 5 358 354 353 347 350 14 16 12 22 39 59 86
Height
1511 1513 1514 1515 1516 1518 1519 1519 1520 1521 1522 1522 1522 1522 1521 1520 1519 1517 1515 1513 1511 1509 1507 1505 1502 1500 1497 1494 1491 1488 1485 1482 1475 1472 1472 1469 1467 1465 1463 1461 1459 1457 1457
1510 1512 1513 1514 1516 1517 1518 1518 1519 1519 1520 1521 1520 1519 1519 1518 1516 1514 1511 1508 1506 1503 1501 1499 1496 1493 1490 1487 1484 1481 1478 1475 1471 1465 1464 1462 1460 1458 1455 1453 1451 1450 1449
1510 1512 1513 1515 1516 1517 1518 1518 1518 1519 1519 1518 1518 1517 1516 1515 1513 1510 1507 1504 1501 1498 1496 1493 1490 1487 1483 1480 1477 1474 1470 1468 1464 1460 1457 1455 1452 1451 1448 1446 1444 1443 1442
1512 1514 1515 1516 1517 1518 1518 1517 1517 1517 1517 1516 1515 1514 1513 1511 1508 1506 1503 1500 1497 1494 1491 1488 1485 1482 1478 1475 1471 1468 1464 1461 1458 1454 1451 1449 1446 1444 1443 1440 1438 1437 1436
1514 1515 1516 1517 1517 1518 1517 1516 1516 1516 1516 1514 1512 1511 1510 1507 1505 1503 1501 1497 1493 1489 1486 1483 1481 1478 1475 1471 1467 1462 1458 1454 1451 1448 1445 1443 1441 1439 1437 1435 1433 1430 1429
1514 1516 1518 1518 1519 1518 1517 1515 1514 1514 1514 1512 1509 1508 1507 1505 1503 1500 1497 1493 1489 1485 1482 1479 1476 1473 1469 1465 1460 1455 1452 1449 1445 1442 1439 1437 1434 1433 1431 1429 1427 1424 1421
1513 1515 1516 1517 1518 1518 1517 1514 1512 1512 1510 1509 1507 1506 1505 1502 1500 1497 1493 1490 1486 1482 1478 1475 1472 1468 1463 1457 1452 1448 1445 1442 1440 1437 1433 1430 1428 1426 1424 1422 1420 1418 1415
1514 1515 1516 1516 1517 1516 1515 1513 1512 1510 1509 1507 1506 1504 1503 1500 1496 1493 1490 1486 1483 1479 1475 1472 1467 1462 1456 1451 1445 1440 1436 1433 1432 1429 1426 1423 1421 1419 1417 1415 1412 1409 1407
1513 1515 1516 1516 1516 1514 1513 1511 1510 1509 1507 1506 1504 1502 1500 1497 1494 1490 1486 1482 1479 1475 1471 1468 1463 1456 1450 1444 1438 1432 1428 1425 1424 1422 1420 1417 1415 1413 1410 1407 1404 1403 1401
1513 1514 1515 1515 1515 1513 1512 1511 1509 1508 1507 1505 1502 1500 1497 1495 1491 1487 1484 1479 1475 1471 1468 1463 1458 1452 1445 1438 1432 1427 1423 1420 1419 1417 1415 1412 1409 1407 1405 1402 1399 1398 1398
1513 1514 1514 1515 1515 1512 1511 1510 1509 1508 1506 1504 1501 1498 1496 1493 1490 1486 1482 1478 1473 1469 1464 1459 1453 1447 1440 1434 1429 1425 1421 1418 1416 1414 1412 1409 1407 1406 1403 1401 1399 1397 1396
1514 1514 1514 1514 1514 1513 1511 1510 1509 1507 1505 1502 1499 1497 1495 1492 1489 1485 1481 1477 1472 1468 1462 1457 1451 1445 1438 1432 1428 1424 1420 1417 1415 1413 1412 1410 1408 1406 1404 1402 1399 1397 1395
1515 1515 1515 1514 1514 1513 1511 1510 1508 1506 1504 1501 1499 1496 1494 1491 1488 1484 1479 1475 1470 1466 1461 1456 1450 1444 1438 1432 1428 1424 1421 1419 1417 1415 1414 1412 1411 1409 1406 1404 1401 1397 1395
1516 1516 1515 1515 1514 1513 1512 1510 1508 1506 1504 1501 1499 1497 1494 1490 1486 1482 1477 1472 1468 1465 1460 1455 1450 1445 1439 1434 1430 1427 1424 1422 1420 1419 1417 1416 1414 1411 1408 1405 1403 1400 1398
1517 1517 1516 1515 1515 1513 1512 1510 1508 1506 1504 1502 1500 1497 1494 1490 1486 1482 1477 1472 1468 1464 1461 1456 1451 1447 1442 1438 1434 1431 1428 1426 1424 1422 1421 1419 1417 1414 1412 1409 1407 1405 1403
1518 1518 1517 1516 1515 1514 1512 1510 1508 1507 1505 1502 1500 1497 1494 1491 1487 1482 1477 1473 1469 1466 1462 1458 1454 1449 1446 1442 1439 1436 1433 1431 1429 1427 1425 1423 1421 1419 1416 1414 1412 1410 1408
1519 1518 1518 1517 1516 1514 1513 1511 1509 1508 1505 1503 1501 1498 1495 1491 1487 1483 1478 1474 1470 1467 1463 1460 1456 1453 1449 1446 1443 1440 1438 1436 1433 1431 1429 1427 1425 1423 1421 1420 1418 1415 1413
1520 1519 1519 1518 1516 1515 1514 1512 1511 1509 1507 1505 1502 1499 1495 1492 1487 1483 1479 1476 1472 1468 1465 1462 1459 1456 1453 1450 1448 1445 1443 1440 1438 1436 1434 1432 1431 1429 1427 1426 1424 1423 1421
1521 1520 1520 1519 1517 1516 1515 1514 1512 1510 1508 1506 1503 1500 1497 1493 1489 1485 1481 1477 1473 1470 1467 1465 1462 1459 1456 1454 1452 1449 1447 1445 1443 1441 1439 1438 1437 1435 1434 1433 1432 1430 1429
1522 1522 1521 1520 1519 1517 1516 1514 1513 1511 1508 1506 1504 1501 1498 1493 1489 1486 1482 1479 1476 1473 1470 1468 1465 1463 1460 1457 1455 1453 1452 1450 1448 1446 1445 1443 1442 1441 1440 1440 1439 1437 1436
1525 1523 1522 1521 1520 1519 1517 1516 1514 1512 1510 1508 1506 1503 1499 1495 1491 1488 1485 1482 1479 1476 1473 1471 1468 1466 1464 1461 1459 1457 1456 1454 1452 1451 1450 1449 1448 1447 1447 1446 1445 1444 1443
1526 1525 1524 1523 1521 1520 1519 1517 1515 1514 1512 1510 1508 1505 1502 1498 1494 1491 1488 1485 1481 1479 1477 1474 1472 1470 1467 1465 1463 1462 1460 1458 1456 1455 1455 1454 1453 1452 1452 1452 1451 1450 1450
1527 1526 1525 1524 1523 1521 1520 1519 1517 1516 1514 1512 1511 1508 1504 1501 1498 1495 1491 1488 1484 1482 1480 1478 1476 1474 1472 1470 1468 1466 1465 1463 1461 1460 1460 1459 1458 1457 1457 1457 1456 1456 1455
1529 1528 1527 1526 1525 1523 1522 1521 1519 1518 1516 1514 1513 1510 1507 1504 1501 1498 1495 1491 1488 1486 1483 1482 1480 1478 1476 1475 1472 1471 1469 1468 1466 1465 1464 1464 1464 1463 1463 1462 1462 1462 1461
1531 1530 1529 1528 1527 1525 1524 1522 1521 1520 1518 1516 1515 1513 1510 1508 1505 1502 1499 1496 1493 1490 1488 1486 1484 1483 1481 1479 1477 1476 1474 1472 1471 1470 1469 1469 1469 1469 1468 1468 1468 1467 1467
1534 1532 1531 1530 1528 1527 1526 1524 1523 1522 1520 1518 1517 1515 1513 1511 1508 1506 1503 1500 1497 1495 1492 1490 1489 1488 1486 1484 1482 1480 1478 1476 1476 1475 1474 1474 1473 1473 1473 1473 1473 1473 1473